Weather History for Jefferson City, MO

Change the Weather History Date:

Tuesday, November 6, 2012

  Actual Average Record
Temperature  
Mean Temperature 48 °F -  
Max Temperature 54 °F 57 °F 81 °F (1945)
Min Temperature 42 °F 33 °F 19 °F (1959)
Degree Days  
Heating Degree Days 17    
Moisture  
Dew Point 40 °F    
Average Humidity 76    
Maximum Humidity 89    
Minimum Humidity 57    
Precipitation  
Precipitation 0.00 in - - ()
Sea Level Pressure  
Sea Level Pressure 30.00 in    
Wind  
Wind Speed 4 mph (WSW)    
Max Wind Speed 12 mph    
Max Gust Speed 16 mph    
Visibility 8 miles    
Events      
Averages and records for this station are not official NWS values.
T = Trace of Precipitation, MM = Missing Value Source: NWS Daily Summary

Daily Weather History Graph

Daily Weather History Graph

Search for Another Location

Airport:

Trip Planner

Search our weather history database for the weather conditions in past years. The results will help you decide how hot, cold, wet, or windy it might be!

Date:

Astronomy

Nov. 06, 2012 Rise Set
Actual Time 6:41 AM CST 5:02 PM CST
Civil Twilight 6:13 AM CST 5:30 PM CST
Nautical Twilight 5:41 AM CST 6:02 PM CST
Astronomical Twilight 5:10 AM CST 6:33 PM CST
Moon 11:41 PM CST (11/6) 12:34 PM CST (11/6)
Length of Visible Light 11h 17m
Length of Day
10h 21m
Waning Gibbous, 53% of the Moon is Illuminated
Nov 6
Waning Gibbous
Nov 6
Last Quarter
Nov 13
New
Nov 20
First Quarter
Nov 28
Full

Hourly Weather History & Observations

Time (CST) Temp. Windchill Dew Point Humidity Pressure Visibility Wind Dir Wind Speed Gust Speed Precip Events Conditions
12:38 AM 44.6 °F 43.1 °F 39.2 °F 81% 30.08 in 7.0 mi ENE 3.5 mph - N/A   Overcast
12:53 AM 44.1 °F 42.5 °F 39.9 °F 85% 30.06 in 6.0 mi ENE 3.5 mph - N/A   Overcast
1:53 AM 44.1 °F - 39.9 °F 85% 30.05 in 5.0 mi Calm Calm - N/A   Overcast
2:08 AM 44.6 °F - 41.0 °F 87% 30.07 in 5.0 mi Calm Calm - N/A   Overcast
2:53 AM 44.1 °F - 39.9 °F 85% 30.05 in 4.0 mi Calm Calm - N/A   Overcast
3:53 AM 44.1 °F - 41.0 °F 89% 30.05 in 4.0 mi Calm Calm - N/A   Overcast
4:43 AM 44.6 °F 43.1 °F 41.0 °F 87% 30.06 in 3.0 mi ESE 3.5 mph - N/A   Overcast
4:53 AM 44.1 °F 41.5 °F 41.0 °F 89% 30.04 in 3.0 mi ESE 4.6 mph - N/A   Overcast
5:24 AM 42.8 °F 40.1 °F 39.2 °F 87% 30.04 in 2.5 mi ESE 4.6 mph - N/A   Overcast
5:53 AM 44.1 °F - 41.0 °F 89% 30.03 in 3.0 mi Calm Calm - N/A   Overcast
6:09 AM 44.6 °F - 41.0 °F 87% 30.06 in 3.0 mi Calm Calm - N/A   Overcast
6:30 AM 44.6 °F - 39.2 °F 81% 30.05 in 4.0 mi Calm Calm - N/A   Overcast
6:53 AM 44.1 °F 42.5 °F 39.9 °F 85% 30.03 in 6.0 mi South 3.5 mph - N/A   Overcast
7:53 AM 45.0 °F 41.8 °F 39.9 °F 82% 30.02 in 6.0 mi SW 5.8 mph - N/A   Haze
8:38 AM 44.6 °F 41.4 °F 41.0 °F 87% 30.04 in 6.0 mi SSW 5.8 mph - N/A   Overcast
8:45 AM 44.6 °F 42.2 °F 41.0 °F 87% 30.04 in 6.0 mi SSW 4.6 mph - N/A   Overcast
8:53 AM 45.0 °F 41.8 °F 41.0 °F 86% 30.02 in 6.0 mi SW 5.8 mph - N/A   Overcast
9:15 AM 46.4 °F 42.9 °F 39.2 °F 76% 30.05 in 7.0 mi WSW 6.9 mph - N/A   Overcast
9:53 AM 46.0 °F 41.0 °F 39.0 °F 76% 30.01 in 10.0 mi WSW 10.4 mph - N/A   Overcast
10:04 AM 46.4 °F 41.1 °F 39.2 °F 76% 30.03 in 10.0 mi WSW 11.5 mph - N/A   Overcast
10:24 AM 46.4 °F 42.4 °F 39.2 °F 76% 30.04 in 10.0 mi WSW 8.1 mph - N/A   Overcast
10:53 AM 46.0 °F 43.1 °F 39.9 °F 79% 30.01 in 10.0 mi West 5.8 mph - N/A   Overcast
11:53 AM 46.0 °F 41.4 °F 39.9 °F 79% 29.99 in 10.0 mi West 9.2 mph - N/A   Overcast
12:11 PM 46.4 °F 41.5 °F 39.2 °F 76% 30.00 in 10.0 mi WSW 10.4 mph - N/A   Overcast
12:53 PM 46.9 °F - 39.0 °F 74% 29.96 in 10.0 mi WSW 8.1 mph - N/A   Overcast
1:43 PM 48.2 °F - 39.2 °F 71% 29.95 in 10.0 mi SW 10.4 mph - N/A   Overcast
1:53 PM 48.9 °F - 39.9 °F 71% 29.93 in 10.0 mi WSW 9.2 mph - N/A   Overcast
2:27 PM 50.0 °F - 39.2 °F 66% 29.95 in 10.0 mi West 10.4 mph 16.1 mph N/A   Overcast
2:39 PM 51.8 °F - 41.0 °F 67% 29.95 in 10.0 mi West 8.1 mph - N/A   Overcast
2:53 PM 51.1 °F - 41.0 °F 68% 29.93 in 10.0 mi WNW 5.8 mph - N/A   Overcast
3:07 PM 51.8 °F - 41.0 °F 67% 29.94 in 10.0 mi West 6.9 mph - N/A   Mostly Cloudy
3:53 PM 54.0 °F - 41.0 °F 62% 29.93 in 10.0 mi WNW 5.8 mph - N/A   Mostly Cloudy
4:53 PM 52.0 °F - 39.0 °F 61% 29.94 in 10.0 mi WNW 4.6 mph - N/A   Mostly Cloudy
5:53 PM 51.1 °F - 39.0 °F 63% 29.95 in 10.0 mi West 3.5 mph - N/A   Overcast
6:53 PM 51.1 °F - 39.0 °F 63% 29.96 in 10.0 mi NW 3.5 mph - N/A   Overcast
7:53 PM 51.1 °F - 39.0 °F 63% 29.97 in 10.0 mi Calm Calm - N/A   Overcast
8:53 PM 51.1 °F - 37.9 °F 61% 29.97 in 10.0 mi NW 3.5 mph - N/A   Overcast
9:53 PM 50.0 °F - 37.0 °F 61% 29.97 in 10.0 mi NNW 4.6 mph - N/A   Overcast
10:53 PM 48.0 °F - 35.1 °F 61% 29.97 in 10.0 mi NW 4.6 mph - N/A   Scattered Clouds
11:53 PM 50.0 °F - 35.1 °F 57% 29.97 in 10.0 mi NW 6.9 mph - N/A   Overcast